Location: Proctor
(47.8934°N, 114.3048°W)
Time: 14:53:47
(UTC+00:00)

POLYITAN 1 - Pass Details

Date: 03 July 2022
Orbit: 586 x 605 km, 98.0° (Epoch: 18 August)

Event Time Altitude Azimuth Distance (km) Brightness Sun altitude
Rises 09:38:45 0° 12° (NNE) 2,863 ? -14.4°
Reaches altitude 10° 09:40:56 10° 11° (NNE) 1,958 ? -14.3°
Maximum altitude 09:45:11 80° 285° (WNW) 621 ? -13.9°
Enters shadow 09:47:54 22° 201° (SSW) 1,340 ? -13.7°
